Location: *
(44.1679°S, 173.2452°W)
Time: 07:25:00
(UTC+00:00)

Daily predictions for brighter satellites

Satellite Brightness Start Highest point End
(mag) Time Altitude Azimuth Time Altitude Azimuth Time Altitude Azimuth
USA 215 4.3 13:15:54 10° SE 13:20:43 38° S 13:20:43 38° S
SL-16 R/B 3.9 13:27:53 10° SSE 13:32:55 32° E 13:32:55 32° E
ATLAS 2AS CENTAUR R/B 4.4 13:28:14 10° SSW 13:34:05 29° SE 13:40:16 10° E
Lacrosse 5 rocket 4.2 14:16:39 13° SSE 14:16:39 13° SSE 14:17:09 10° SE
Cosmos 2297 Rocket 3.9 14:16:09 23° SSW 14:16:09 23° SSW 14:19:04 10° S
Cosmos 1867 4.4 14:19:03 46° SSE 14:19:03 46° SSE 14:22:48 10° SSE
SL-4 R/B 4.0 14:21:05 31° SSE 14:21:05 31° SSE 14:24:43 10° ESE
Cosmos 2251 Rocket 4.5 14:21:50 43° E 14:21:50 43° E 14:26:32 10° SSE
FENGYUN 3A 4.4 14:29:56 47° S 14:29:56 47° S 14:33:47 10° SSW
ALOS 3.8 14:37:36 28° S 14:37:36 28° S 14:39:52 10° S
Cosmos 2227 Rocket 3.7 14:37:09 24° SSW 14:37:09 24° SSW 14:40:32 10° S
Cosmos 2195 Rocket 4.4 14:39:13 74° NNE 14:39:47 83° E 14:46:01 10° S
Cosmos 2227 4.2 14:50:21 67° NNE 14:51:01 75° ENE 14:56:47 10° SSE
Cosmos 1428 Rocket 4.4 14:53:08 61° NNW 14:54:21 87° W 15:00:37 10° S
Cosmos 2026 Rocket 3.9 14:54:57 54° NNW 14:56:35 87° W 15:03:04 10° S
Cosmos 614 Rocket 3.8 14:58:17 87° N 14:58:22 90° ENE 15:03:37 10° SSE
Cosmos 2263 Rocket 2.0 14:59:26 75° W 14:59:43 77° WSW 15:05:25 10° SSE
Lacrosse 5 4.1 15:06:59 12° NNE 15:06:59 12° NNE 15:07:27 10° NNE
Meteor 2-6 Rocket 4.4 14:57:57 10° SSW 15:02:24 51° SW 15:02:24 51° SW
ADEOS Rocket 3.5 15:00:24 10° S 15:05:00 38° SW 15:05:00 38° SW
Cosmos 1553 Rocket 4.2 15:01:52 10° S 15:08:02 69° E 15:14:07 10° NNE
Cosmos 1515 Rocket 4.1 15:03:55 10° S 15:07:20 50° SSW 15:07:20 50° SSW
PSLV R/B 4.4 15:11:40 39° SSW 15:11:40 39° SSW 15:14:34 10° SSW
SJ-6F 4.4 15:15:19 49° NNE 15:16:25 88° E 15:20:43 10° SSW
SL-16 R/B 2.8 15:11:14 10° S 15:17:09 46° WSW 15:18:01 43° W
YAOGAN 6 4.4 15:18:07 10° NE 15:21:18 31° ESE 15:24:32 10° S
NOSS 3-4 (A) 4.0 15:15:11 10° SW 15:22:43 39° NW 15:27:25 10° N
NOSS 3-4 (C) 3.9 15:15:18 10° SW 15:22:31 41° NW 15:27:33 10° N
DELTA 2 DEB (DPAF) 4.2 15:19:04 10° SSE 15:23:37 77° ENE 15:25:34 34° N
ATLAS 2AS CENTAUR R/B 2.7 15:18:46 10° SW 15:25:43 83° NW 15:33:10 10° NNE
Cosmos 1943 3.1 15:20:55 10° SSW 15:26:35 66° WNW 15:32:13 10° NNE
SL-24 R/B 4.1 15:25:46 10° SSE 15:29:34 61° E 15:31:22 28° N
Cosmos 1603 3.7 15:27:34 10° SSW 15:33:09 58° WNW 15:38:39 10° N
CZ-4B R/B 4.1 15:32:54 10° NNE 15:36:32 61° ESE 15:40:16 10° S
SJ-12 4.0 15:34:05 10° NNE 15:38:10 77° ESE 15:42:19 10° S
CBERS 1 LM4 rocket 4.4 15:34:05 10° NNE 15:39:11 86° WNW 15:44:09 10° SSW
H-2A R/B 3.2 15:36:48 10° NNE 15:40:36 63° ESE 15:44:26 10° S
Cosmos 1417 Rocket 4.5 15:37:18 10° S 15:43:46 79° W 15:50:06 10° N
Cosmos 1805 Rocket 3.5 15:42:16 14° N 15:46:05 88° WSW 15:50:38 10° S
Sich 1 3.3 15:41:44 10° N 15:46:10 72° E 15:50:35 10° SSE
Cosmos 1844 Rocket 3.3 15:42:08 10° N 15:47:36 57° ENE 15:53:09 10° SSE
Cosmos 1500 Rocket 3.8 15:46:34 37° WNW 15:47:48 48° WSW 15:52:11 10° S
RESURS DK-1 4.3 15:46:20 10° S 15:50:09 32° SE 15:53:55 10° ENE
ADEOS 3.7 15:46:05 10° NNE 15:51:20 79° ESE 15:56:39 10° SSW
IKONOS-2 4.4 15:48:34 10° S 15:52:57 76° WSW 15:56:32 15° NNW
Lacrosse 5 rocket 3.5 15:52:15 11° SW 15:53:43 13° SSW 15:55:34 10° SSE
Envisat 2.9 15:51:00 10° NNE 15:56:07 86° WNW 16:01:20 10° SSW
Milstar 3 4.3 15:54:14 16° NW 15:58:37 24° N 16:03:57 10° NE
Cosmos 2266 Rocket 3.9 15:53:41 10° N 15:59:46 90° E 16:06:01 10° S
SL-4 R/B 3.1 15:56:38 14° SW 16:00:43 51° SSE 16:05:26 10° E
Cosmos 1607 3.9 15:57:37 14° NNW 16:03:02 87° NE 16:09:14 10° SE
Cosmos 1515 3.6 16:00:12 10° SSW 16:04:03 69° W 16:07:50 10° N
Cosmos 676 Rocket 4.3 15:59:51 10° N 16:05:05 69° ENE 16:10:26 10° SSE
Meteor 1-31 Rocket 2.8 16:05:05 10° N 16:08:52 55° W 16:12:41 10° SSW
S3M 4.0 16:03:26 10° SSW 16:09:46 62° W 16:16:04 10° N
Meteor 1-20 Rocket 4.2 16:05:34 10° NNW 16:11:01 65° WSW 16:16:40 10° S
Okean 1 3.3 16:08:34 10° S 16:12:41 88° W 16:16:43 10° N
Meteor 1-27 Rocket 4.4 16:14:45 10° SSW 16:19:36 31° W 16:24:28 10° NNW
USA 305 3.1 16:16:30 14° NW 16:20:07 71° NE 16:24:29 10° ESE
MOS 1 Rocket 3.6 16:18:50 10° S 16:24:22 84° WSW 16:29:37 10° NNW
CZ-2C R/B 4.0 16:21:21 10° NE 16:26:29 52° ESE 16:31:26 10° S
Spot 1 4.1 16:22:25 10° S 16:26:43 61° WSW 16:31:10 10° NNW
Cosmos 1602 4.4 16:25:30 10° NW 16:29:07 36° WSW 16:32:46 10° S
Cosmos 2228 Rocket 3.9 16:25:27 10° SSW 16:29:17 28° W 16:33:06 10° NNW
Cosmos 1844 3.7 16:26:52 10° NNW 16:32:35 79° WSW 16:38:18 10° SSE
ISS -0.7 16:31:12 10° NNE 16:32:42 12° NE 16:34:11 10° ENE
USA 307 3.0 16:28:32 11° NW 16:32:45 80° NE 16:37:06 10° SE
Cosmos 1954 Rocket 4.1 16:29:27 10° NNW 16:34:44 65° WSW 16:40:05 10° SSE
Cosmos 1140 Rocket 4.3 16:31:34 11° WNW 16:36:05 32° WSW 16:40:51 10° S
Cosmos 1500 3.5 16:34:11 10° NNW 16:37:56 47° WSW 16:41:46 10° S
Cosmos 1470 Rocket 3.9 16:34:31 10° N 16:38:52 70° E 16:43:15 10° SSE
Meteor PRIRODA 3.6 16:35:29 10° N 16:39:13 65° W 16:42:59 10° SSW
Cosmos 1340 Rocket 2.8 16:37:22 10° NNW 16:41:15 59° WSW 16:45:13 10° S
Cosmos 1666 Rocket 3.8 16:38:11 10° NNW 16:42:29 50° WSW 16:46:54 10° S
Cosmos 2263 Rocket 4.0 16:41:25 10° WSW 16:44:39 15° SW 16:47:55 10° S
Meteor 2-4 Rocket 3.9 16:38:44 10° SSW 16:44:47 86° W 16:50:45 10° N
Cosmos 1378 4.4 16:42:00 10° S 16:45:41 47° ESE 16:49:19 10° NNE
Cosmos 468 Rocket 4.1 16:42:06 10° SSW 16:47:31 88° WNW 16:52:52 10° NNE
USA 306 3.0 16:43:32 10° WNW 16:47:52 76° SW 16:52:15 10° SE
USA 308 3.0 16:47:38 10° WNW 16:51:59 77° SW 16:56:22 10° SE
YAOGAN 6 4.1 16:52:29 10° NW 16:54:50 17° W 16:57:13 10° SW
NOAA 6 4.1 16:56:24 10° NNE 17:01:38 82° WNW 17:06:53 10° SSW
